Wetbulb
73.56 73.30 71.85 69.24 62.30 60.23 56.29 58.14 61.40 59.70 59.71 63.21 64.58 63.50 61.81 62.69 59.89 55.04 66.60 68.78 71.06 72.51 74.69 75.98 77.41 77.28 76.95 76.93 77.34 77.14 76.87 77.14 77.05 77.17 77.00 76.86 76.64 76.58 76.67 76.79 76.65 76.29 75.75 76.10 75.93 75.88 75.28 75.03 75.33
72.90 72.48 70.49 66.67 58.23 54.23 55.42 61.05 59.17 60.31 62.76 64.15 65.48 64.97 63.14 60.43 63.87 64.33 65.66 70.54 72.70 74.06 74.48 75.50 77.25 77.48 77.09 77.18 77.05 77.21 77.52 77.15 77.11 76.82 76.89 76.87 76.85 76.65 76.84 76.58 76.73 75.97 75.53 75.69 75.88 75.63 75.39 75.06 75.00
72.41 72.23 66.01 62.24 57.30 53.79 54.56 60.43 61.06 63.16 64.48 65.21 64.27 65.53 64.03 60.91 64.38 65.35 68.94 71.66 74.05 73.96 74.34 75.32 77.37 77.50 77.02 77.15 77.21 77.19 77.14 76.84 76.97 76.59 76.72 76.87 76.94 76.69 76.88 76.68 76.38 76.51 75.94 75.77 75.80 75.63 75.58 75.06 74.90
69.25 66.82 65.73 59.49 54.57 59.09 59.58 62.11 64.13 62.76 65.51 65.91 64.76 60.71 63.85 66.56 65.49 68.04 71.45 73.75 73.71 74.23 75.19 76.71 77.07 76.73 76.84 76.97 77.19 76.83 76.66 76.68 76.58 76.53 76.81 76.19 76.48 77.13 76.87 76.92 76.48 76.16 75.94 75.42 75.54 75.66 75.66 75.03 74.70
69.19 67.72 58.90 57.09 56.21 60.05 62.45 64.50 64.71 63.55 64.46 64.34 63.66 59.62 61.22 65.61 68.64 70.54 71.76 73.47 73.21 73.95 74.64 75.00 77.55 77.19 76.76 77.21 77.57 77.32 76.88 76.71 76.58 76.33 77.19 77.18 76.47 76.25 76.35 76.46 76.46 76.24 76.05 75.80 75.45 75.34 75.26 75.20 74.92
64.64 61.98 52.47 52.61 56.39 60.37 62.89 65.61 65.30 64.32 63.09 61.48 60.65 60.22 61.54 66.83 68.57 69.63 72.46 72.90 74.01 74.29 74.37 74.36 77.02 77.18 76.79 77.26 77.23 77.32 76.63 77.05 77.03 76.75 77.03 77.29 77.03 76.71 76.57 76.58 76.52 76.33 76.06 75.95 75.46 75.29 75.05 75.25 75.05
61.29 56.53 54.17 55.87 57.04 57.44 61.18 66.60 64.28 64.25 62.43 60.59 63.26 59.42 61.67 65.67 68.34 70.16 72.36 73.24 73.96 74.61 74.12 73.83 74.12 75.69 77.06 76.80 77.63 77.01 76.55 76.79 76.79 76.70 76.81 76.70 77.12 76.99 76.58 76.61 76.70 76.56 76.20 76.03 75.78 75.60 75.45 75.38 75.31
64.19 59.29 55.76 57.09 55.33 56.64 62.70 64.72 65.35 65.38 63.50 66.11 65.64 58.79 59.67 65.15 68.03 71.86 72.57 72.97 73.31 73.62 73.63 72.95 73.21 73.52 73.97 74.77 77.05 76.70 76.63 76.79 76.79 76.58 76.42 76.17 76.32 76.58 76.61 77.21 77.34 76.34 76.12 75.84 75.95 75.66 75.72 75.79 75.71
68.91 57.88 54.57 56.79 57.12 58.50 63.49 62.85 66.37 67.86 64.63 66.43 66.15 63.49 65.56 67.16 70.24 70.40 70.79 71.80 72.38 72.83 72.25 71.97 72.13 73.12 73.19 74.88 74.73 76.66 76.85 76.79 76.71 76.15 76.33 74.57 72.32 73.03 74.34 75.31 76.06 76.28 76.12 75.62 75.78 75.81 75.88 75.78 75.45
62.58 57.33 58.46 62.27 60.88 59.47 63.16 64.08 65.12 64.09 64.03 63.21 62.89 65.17 66.92 66.64 69.45 68.75 68.65 68.31 69.81 71.29 71.74 71.51 71.64 72.20 73.10 75.81 73.65 73.22 74.40 74.31 73.93 72.97 71.14 70.13 71.37 71.77 74.22 75.03 76.28 75.98 75.89 75.64 75.73 75.34 75.59 73.80 71.49
62.76 58.55 61.81 62.78 61.97 63.31 62.82 63.07 66.30 63.90 61.34 62.65 60.79 63.28 65.41 65.13 68.14 68.13 68.33 68.72 69.34 71.13 72.27 71.66 71.53 71.57 72.38 73.07 72.37 72.37 72.84 73.21 73.06 70.86 68.29 69.69 71.29 68.66 70.95 72.38 73.24 72.52 74.56 72.56 73.55 72.97 72.79 73.57 71.56
58.03 62.32 63.98 63.71 63.83 62.92 61.73 63.00 64.51 65.04 64.62 66.01 64.34 65.30 65.06 64.42 66.93 67.57 67.79 68.87 69.46 70.66 71.49 71.31 71.52 71.19 71.09 71.00 71.60 71.69 71.94 72.41 72.10 69.21 67.67 69.90 70.84 69.55 69.89 71.17 71.10 71.33 72.32 71.69 72.28 71.89 71.97 71.62 71.95
56.32 59.40 61.46 63.31 62.90 62.95 63.40 63.00 64.20 65.08 66.36 66.16 65.08 65.48 64.68 65.46 66.79 67.99 68.95 69.69 69.80 70.01 70.74 70.73 71.16 70.79 71.02 70.28 70.63 70.90 71.32 71.71 71.78 68.15 66.97 70.44 69.22 69.43 68.17 66.79 67.55 69.08 71.80 72.23 71.06 70.82 71.41 70.34 70.34
55.78 56.67 57.92 59.92 60.16 62.14 61.75 62.92 64.39 65.34 65.34 64.54 63.93 63.88 64.88 66.27 66.99 67.13 68.68 68.93 69.50 70.25 70.40 70.48 70.31 70.83 70.43 69.80 69.34 70.08 70.72 70.96 71.59 70.04 65.99 69.99 71.23 70.24 69.42 68.07 69.89 69.66 71.38 71.85 71.46 70.17 70.93 69.57 69.10
53.74 51.84 54.24 56.95 59.21 61.36 62.61 60.00 62.11 65.14 63.99 62.56 62.89 63.11 65.02 66.49 67.50 66.89 68.45 68.97 69.85 70.05 70.16 69.63 69.85 70.56 70.10 69.72 68.71 69.72 70.45 70.83 70.57 71.84 68.36 70.34 71.59 70.76 70.34 70.16 70.25 70.94 71.81 72.32 71.63 70.97 70.20 68.01 69.85
49.31 49.15 45.24 52.93 58.01 61.93 60.87 53.68 63.20 64.84 62.63 61.22 62.27 63.12 64.43 65.90 67.04 68.07 68.93 69.24 69.97 69.87 68.69 69.14 70.81 70.15 70.33 69.78 68.86 69.15 70.25 70.28 70.12 72.26 71.84 71.46 72.27 71.72 70.46 70.96 71.23 71.66 71.84 71.66 70.72 69.62 68.39 67.46 67.96
41.86 41.01 46.35 50.37 58.13 60.33 58.76 56.76 63.41 64.91 63.42 61.26 61.53 62.47 64.25 65.54 66.89 68.13 69.20 69.34 69.44 69.14 68.21 68.32 69.08 69.25 70.04 70.22 69.52 70.43 70.17 68.54 69.75 72.01 72.21 72.01 72.41 72.49 71.05 71.29 70.98 71.83 71.37 71.38 71.78 69.73 67.82 65.39 66.67
38.65 41.41 44.55 47.55 56.04 58.85 56.94 56.75 62.94 64.03 63.77 62.65 62.37 62.89 64.17 65.47 66.34 68.02 68.84 69.72 69.63 69.56 68.02 68.42 68.91 68.95 70.02 70.61 69.32 69.94 70.08 69.65 69.08 70.57 70.99 71.67 72.43 72.34 71.40 71.48 71.31 70.41 70.35 69.95 70.45 70.57 69.73 68.59 67.40
44.83 45.45 46.71 50.24 56.64 57.09 56.42 57.06 61.48 63.20 63.34 62.82 63.05 63.59 63.73 65.08 67.24 68.40 68.58 69.34 69.17 69.50 68.72 67.86 68.12 68.88 70.09 69.29 68.46 67.71 67.79 68.61 69.43 69.00 71.22 70.96 72.05 73.31 72.37 71.42 71.06 70.29 70.44 69.90 69.70 69.55 67.62 65.09 63.90
44.03 42.32 43.85 49.23 54.24 56.77 56.21 55.90 61.21 63.04 62.86 63.50 63.26 63.73 64.46 64.84 65.94 67.18 67.96 68.45 68.29 67.97 69.17 67.99 68.10 68.98 70.07 70.57 70.32 68.34 67.87 68.37 69.12 68.82 69.71 71.37 71.90 72.82 72.53 71.70 71.12 71.10 70.89 69.84 69.96 68.80 67.34 66.20 62.84
43.26 42.62 43.52 46.11 51.40 55.37 54.16 53.89 57.63 61.76 63.91 64.37 64.82 65.25 65.58 65.02 65.11 66.12 67.00 67.89 68.39 67.24 68.31 68.56 68.26 68.72 70.07 70.66 69.04 69.27 68.98 68.27 68.15 67.59 67.57 71.30 72.22 73.13 73.11 72.41 71.55 70.93 71.49 70.02 69.68 68.62 66.71 63.99 63.04
39.90 47.48 47.63 47.60 46.34 43.63 55.16 45.30 53.80 57.88 59.98 60.59 63.46 64.58 65.37 65.71 66.25 66.63 66.96 67.26 68.04 67.95 69.34 69.26 68.80 68.88 70.02 69.67 69.52 68.81 68.00 67.13 67.27 67.34 67.22 70.60 72.52 72.79 73.66 73.11 72.43 72.02 71.47 70.41 69.34 70.77 68.67 63.67 60.98
45.03 49.20 47.87 47.64 44.00 43.39 48.93 47.96 50.31 56.65 56.17 58.55 60.34 63.63 64.81 66.22 67.05 66.81 67.03 67.71 68.69 69.17 68.83 69.45 69.09 69.06 69.45 69.84 69.57 68.83 67.12 66.89 67.36 66.79 66.91 67.50 71.39 72.31 73.84 72.80 72.22 71.65 71.41 70.04 70.44 70.32 68.52 66.39 62.60
51.33 47.54 45.85 44.38 42.04 38.17 44.60 46.00 42.49 52.51 55.53 58.04 60.81 61.98 63.76 65.24 66.47 67.18 68.46 68.55 68.34 69.51 68.72 69.10 68.83 69.11 69.51 69.96 69.73 68.81 68.26 67.03 66.74 66.74 66.33 66.12 68.53 71.51 72.01 73.19 72.58 71.96 71.24 71.14 70.94 70.89 69.95 68.62 65.89
49.75 42.30 34.89 33.96 34.62 37.69 43.41 43.11 46.87 55.36 58.65 59.34 60.06 61.54 62.76 64.97 65.61 65.66 67.15 67.68 68.23 68.68 68.29 68.77 68.68 68.78 69.67 69.87 69.99 69.48 68.78 67.77 67.70 66.78 67.82 65.91 66.67 68.85 70.57 72.66 72.49 71.76 71.17 71.40 70.99 70.63 70.57 69.80 68.77
46.35 42.85 35.30 29.93 31.60 36.26 43.16 38.44 44.10 54.59 60.41 61.46 62.18 63.00 63.47 64.31 64.95 64.24 65.90 67.89 68.51 68.84 68.65 68.55 68.45 68.90 69.58 69.88 70.09 70.14 69.55 68.87 68.90 68.41 66.58 66.87 67.31 69.40 70.46 71.85 72.93 72.85 72.10 71.59 71.10 71.12 70.80 69.33 69.65
46.65 43.68 46.24 37.04 32.79 35.76 41.45 41.17 47.23 51.88 56.55 59.49 60.58 61.70 62.12 63.49 64.53 62.65 65.37 67.21 68.68 68.88 68.54 68.09 68.66 69.29 69.82 70.11 70.52 70.31 70.19 69.65 68.97 68.18 68.38 67.39 67.71 69.97 70.51 71.58 72.65 73.14 72.62 71.65 71.46 71.27 71.16 70.30 69.41
49.43 47.98 40.40 37.29 31.73 29.94 34.78 37.58 42.83 46.70 51.42 56.05 58.45 60.34 61.65 63.19 64.40 64.27 64.30 66.60 67.78 68.76 68.89 68.87 68.88 69.22 69.93 70.21 70.64 70.59 70.38 70.29 70.00 68.82 67.31 67.39 67.38 69.13 70.84 71.47 72.25 73.24 73.22 72.35 71.78 71.36 71.63 71.50 70.54
44.44 45.01 42.55 43.23 38.01 37.44 30.73 37.59 44.14 47.09 50.50 54.41 57.87 60.43 61.80 62.63 63.81 63.92 65.18 66.92 67.57 68.49 68.88 68.94 68.49 68.91 69.56 70.32 70.45 70.37 70.38 70.38 70.15 69.21 69.13 69.31 68.91 68.53 69.82 71.47 72.03 72.77 73.18 72.89 71.81 71.79 72.20 72.12 71.77
43.05 44.81 41.60 42.65 36.39 34.19 36.03 41.69 47.70 47.92 49.17 51.57 57.58 60.39 62.35 63.34 64.14 64.46 65.24 66.56 67.61 67.64 68.45 68.83 69.15 68.65 69.32 70.72 70.57 70.56 70.52 70.98 71.22 70.72 69.29 68.92 69.57 69.91 70.04 70.50 71.73 72.39 73.27 73.18 72.51 71.89 72.36 72.30 71.70
MSLP
1010.77 1011.02 1011.33 1011.48 1011.74 1010.81 1009.14 1008.34 1007.92 1007.43 1007.63 1008.04 1008.83 1009.53 1010.81 1011.89 1012.63 1013.95 1013.82 1014.13 1014.16 1014.71 1014.91 1015.06 1015.25 1015.42 1015.60 1015.87 1016.03 1016.17 1016.31 1016.35 1016.52 1016.61 1016.69 1016.80 1016.91 1016.97 1016.92 1017.04 1017.23 1017.29 1017.51 1017.55 1017.63 1017.71 1017.81 1017.92 1017.99
1010.80 1011.21 1011.22 1010.95 1010.78 1009.82 1008.73 1007.92 1007.53 1007.16 1007.42 1008.17 1008.92 1009.77 1010.88 1012.37 1013.01 1013.69 1014.01 1014.23 1014.23 1014.64 1015.07 1015.29 1015.47 1015.62 1015.79 1016.00 1016.18 1016.37 1016.46 1016.62 1016.77 1016.89 1016.96 1017.04 1017.05 1017.16 1017.05 1017.15 1017.27 1017.43 1017.65 1017.73 1017.84 1017.97 1018.04 1018.09 1018.20
1010.93 1010.71 1010.89 1010.54 1010.11 1009.66 1008.83 1007.88 1007.32 1007.01 1007.23 1008.07 1009.27 1010.15 1011.30 1012.65 1013.21 1013.65 1013.69 1014.04 1014.37 1014.86 1015.22 1015.49 1015.69 1015.84 1016.01 1016.18 1016.40 1016.57 1016.74 1016.92 1017.05 1017.11 1017.31 1017.30 1017.29 1017.37 1017.28 1017.24 1017.37 1017.58 1017.78 1017.90 1018.00 1018.09 1018.22 1018.34 1018.37
1010.68 1010.76 1010.65 1010.32 1009.69 1008.90 1008.24 1007.53 1006.97 1007.29 1007.75 1008.38 1009.25 1010.81 1011.95 1012.39 1013.03 1013.39 1013.85 1014.01 1014.66 1015.03 1015.38 1015.55 1015.82 1016.06 1016.21 1016.39 1016.62 1016.78 1016.95 1017.14 1017.24 1017.19 1017.24 1017.42 1017.52 1017.45 1017.41 1017.45 1017.55 1017.71 1017.93 1018.10 1018.17 1018.24 1018.39 1018.49 1018.55
1010.43 1010.22 1010.34 1009.80 1008.89 1007.95 1007.43 1007.11 1007.37 1007.41 1008.15 1009.03 1009.66 1011.53 1012.54 1013.10 1013.01 1013.64 1014.07 1014.53 1014.84 1015.26 1015.47 1015.75 1015.96 1016.25 1016.41 1016.59 1016.73 1016.95 1017.11 1017.24 1017.36 1017.34 1017.39 1017.55 1017.65 1017.60 1017.58 1017.63 1017.70 1017.88 1018.08 1018.23 1018.37 1018.45 1018.51 1018.67 1018.71
1010.37 1010.53 1010.50 1009.66 1008.53 1007.61 1007.02 1007.05 1007.15 1007.92 1008.95 1009.91 1010.75 1011.48 1012.98 1013.17 1013.45 1013.94 1014.32 1014.73 1014.89 1015.35 1015.61 1015.98 1016.20 1016.42 1016.60 1016.73 1016.87 1017.10 1017.25 1017.35 1017.51 1017.60 1017.65 1017.75 1017.79 1017.82 1017.89 1017.92 1017.90 1018.03 1018.25 1018.39 1018.46 1018.57 1018.63 1018.80 1018.85
1010.11 1010.40 1010.16 1009.36 1008.11 1007.45 1007.41 1007.39 1007.26 1008.07 1009.13 1009.96 1010.24 1011.60 1013.13 1013.49 1013.71 1014.07 1014.60 1015.01 1015.09 1015.44 1015.73 1016.14 1016.42 1016.54 1016.72 1016.88 1017.01 1017.28 1017.42 1017.57 1017.76 1017.89 1017.95 1018.00 1018.06 1018.11 1018.11 1018.07 1018.06 1018.20 1018.40 1018.51 1018.64 1018.73 1018.87 1018.91 1019.02
1009.68 1010.18 1009.70 1008.79 1007.80 1007.47 1007.34 1007.39 1007.68 1008.25 1009.02 1009.62 1010.11 1011.33 1012.49 1012.98 1013.59 1014.31 1014.93 1015.27 1015.60 1015.87 1015.96 1016.37 1016.59 1016.73 1016.88 1017.02 1017.13 1017.38 1017.57 1017.75 1017.97 1018.09 1018.19 1018.32 1018.38 1018.22 1018.19 1018.28 1018.26 1018.38 1018.51 1018.54 1018.74 1018.77 1018.93 1019.07 1019.18
1009.19 1009.67 1009.17 1007.90 1007.19 1007.19 1006.84 1007.00 1007.40 1008.15 1008.75 1009.11 1009.81 1010.39 1011.68 1012.83 1013.48 1014.39 1015.06 1015.55 1015.92 1016.29 1016.46 1016.56 1016.83 1016.88 1017.05 1017.19 1017.26 1017.46 1017.69 1017.92 1018.09 1018.21 1018.32 1018.59 1018.73 1018.59 1018.43 1018.41 1018.45 1018.54 1018.63 1018.65 1018.77 1018.96 1019.04 1019.14 1019.37
1009.27 1009.12 1007.70 1006.68 1006.54 1006.49 1006.49 1006.75 1007.19 1008.08 1008.67 1009.53 1010.07 1010.80 1012.02 1012.91 1013.46 1014.10 1014.77 1015.25 1015.87 1016.29 1016.61 1016.83 1016.91 1017.01 1017.18 1017.17 1017.39 1017.72 1017.85 1018.13 1018.38 1018.48 1018.55 1018.77 1018.83 1018.80 1018.65 1018.57 1018.59 1018.59 1018.70 1018.76 1018.93 1019.07 1019.13 1019.30 1019.61
1008.66 1007.85 1006.91 1006.32 1006.16 1006.15 1006.15 1006.57 1006.82 1007.87 1008.65 1009.17 1009.55 1010.62 1011.84 1012.88 1013.54 1014.01 1014.61 1014.96 1015.47 1016.18 1016.56 1016.91 1016.95 1017.10 1017.20 1017.22 1017.61 1017.89 1018.11 1018.31 1018.56 1018.55 1018.70 1018.95 1018.99 1019.04 1018.94 1018.83 1018.72 1018.79 1018.80 1018.95 1019.12 1019.34 1019.36 1019.31 1019.66
1008.19 1006.87 1006.40 1005.88 1005.85 1006.09 1006.31 1006.36 1006.65 1007.18 1007.45 1008.03 1009.21 1009.59 1010.93 1012.19 1013.02 1013.72 1014.25 1014.83 1015.39 1016.05 1016.37 1016.84 1016.92 1017.11 1017.18 1017.45 1017.67 1017.93 1018.24 1018.43 1018.54 1018.73 1018.95 1019.13 1019.09 1019.15 1019.10 1019.12 1019.01 1018.96 1019.08 1019.11 1019.15 1019.47 1019.55 1019.61 1019.61
1007.63 1006.49 1006.08 1005.63 1005.84 1005.80 1005.81 1006.07 1006.46 1007.00 1007.39 1008.41 1009.80 1010.77 1011.53 1011.99 1012.74 1013.45 1014.08 1014.70 1015.29 1015.75 1016.08 1016.55 1016.83 1016.98 1017.01 1017.50 1017.72 1018.01 1018.21 1018.37 1018.56 1018.76 1018.97 1019.14 1019.14 1019.22 1019.22 1019.37 1019.39 1019.15 1019.08 1019.12 1019.35 1019.52 1019.75 1019.46 1019.52
1006.37 1006.35 1005.53 1005.71 1005.47 1005.41 1005.45 1005.99 1006.32 1007.37 1008.01 1009.02 1009.79 1010.76 1011.53 1011.71 1012.14 1013.06 1013.73 1014.19 1014.79 1015.31 1015.62 1016.15 1016.58 1016.61 1016.85 1017.38 1017.65 1017.88 1018.09 1018.26 1018.53 1018.71 1018.88 1019.03 1019.15 1019.09 1019.27 1019.38 1019.38 1019.24 1019.13 1019.14 1019.43 1019.53 1019.70 1019.71 1019.47
1006.43 1006.36 1005.63 1005.13 1004.98 1005.03 1005.03 1005.95 1006.59 1007.13 1008.05 1008.89 1009.73 1010.53 1011.19 1011.57 1011.97 1012.21 1012.87 1013.49 1014.07 1014.71 1015.13 1015.74 1016.05 1016.34 1016.73 1017.06 1017.46 1017.70 1017.83 1018.04 1018.40 1018.49 1018.75 1018.92 1019.01 1019.01 1019.14 1019.17 1019.25 1019.28 1019.23 1019.13 1019.36 1019.50 1019.74 1020.13 1019.82
1006.25 1006.64 1006.17 1004.49 1004.55 1004.40 1004.59 1005.88 1006.94 1007.35 1007.90 1009.09 1009.87 1010.21 1010.51 1010.82 1011.07 1011.61 1012.36 1013.15 1013.66 1014.25 1014.76 1015.28 1015.68 1016.21 1016.48 1016.84 1017.20 1017.45 1017.63 1017.74 1017.96 1018.10 1018.36 1018.54 1018.73 1018.89 1019.00 1018.93 1019.21 1019.20 1019.29 1019.34 1019.59 1019.86 1020.11 1020.45 1020.26
1006.61 1006.41 1005.87 1004.75 1004.28 1004.56 1005.08 1006.00 1006.75 1007.62 1008.37 1009.23 1009.68 1010.01 1010.34 1010.60 1010.81 1011.07 1011.40 1012.21 1012.99 1013.59 1014.15 1014.81 1015.34 1015.81 1016.20 1016.43 1016.83 1017.19 1017.32 1017.57 1017.63 1017.78 1018.03 1018.25 1018.51 1018.71 1018.95 1018.99 1019.15 1019.21 1019.31 1019.53 1019.59 1019.96 1020.29 1020.42 1020.57
1006.56 1006.18 1005.43 1004.79 1004.29 1004.74 1005.40 1005.63 1006.53 1007.22 1007.81 1008.61 1009.17 1009.56 1009.83 1010.15 1010.28 1010.84 1011.15 1011.64 1012.33 1013.07 1013.65 1014.25 1014.89 1015.39 1015.90 1016.40 1016.75 1017.14 1017.24 1017.28 1017.38 1017.60 1017.88 1018.07 1018.38 1018.62 1018.84 1018.87 1018.95 1019.18 1019.49 1019.88 1019.93 1020.01 1020.21 1020.47 1020.60
1006.00 1005.75 1005.22 1004.25 1004.07 1004.57 1005.11 1005.56 1006.09 1006.88 1007.93 1008.11 1008.61 1008.95 1009.23 1009.24 1009.67 1010.31 1010.85 1011.39 1011.91 1012.63 1013.19 1013.73 1014.38 1014.93 1015.64 1016.35 1016.88 1017.39 1017.40 1017.37 1017.56 1017.55 1017.65 1018.09 1018.33 1018.54 1018.73 1018.83 1018.93 1019.19 1019.56 1019.91 1020.14 1020.22 1020.43 1020.64 1020.75
1005.93 1005.60 1004.99 1004.26 1003.92 1004.29 1004.77 1005.27 1005.84 1006.66 1006.55 1006.66 1007.71 1008.45 1008.50 1008.89 1009.16 1009.61 1010.15 1010.76 1011.28 1011.85 1012.53 1013.22 1013.71 1014.35 1015.04 1015.70 1016.13 1016.51 1016.73 1017.05 1017.23 1017.27 1017.53 1017.86 1018.17 1018.42 1018.62 1018.72 1018.95 1019.10 1019.61 1019.91 1020.11 1020.23 1020.64 1020.73 1020.88
1005.31 1005.11 1004.79 1004.34 1004.01 1003.90 1004.44 1005.49 1006.09 1006.55 1006.87 1006.91 1007.34 1007.43 1007.97 1008.01 1008.29 1008.64 1009.14 1009.60 1010.34 1011.18 1011.73 1012.42 1013.05 1013.70 1014.37 1015.01 1015.75 1016.32 1016.58 1016.83 1017.10 1017.43 1017.62 1017.68 1017.91 1018.14 1018.41 1018.57 1018.80 1019.00 1019.30 1019.75 1019.93 1020.12 1020.49 1020.82 1020.91
1004.49 1003.90 1004.39 1004.39 1004.84 1004.69 1004.29 1005.62 1005.87 1005.99 1005.92 1005.87 1005.91 1006.38 1006.93 1007.40 1008.10 1008.41 1008.84 1008.99 1009.29 1010.17 1011.00 1011.67 1012.39 1013.11 1013.76 1014.49 1015.14 1015.59 1016.04 1016.50 1016.66 1016.98 1017.35 1017.56 1017.73 1017.89 1018.12 1018.35 1018.63 1018.83 1019.08 1019.49 1019.74 1020.05 1020.34 1020.64 1021.01
1002.59 1003.52 1004.12 1004.29 1004.57 1005.07 1004.67 1005.11 1004.51 1005.00 1005.17 1004.91 1004.51 1004.71 1005.51 1006.23 1006.91 1007.12 1007.42 1008.02 1008.10 1009.13 1010.30 1010.95 1011.73 1012.55 1013.17 1013.96 1014.47 1015.05 1015.64 1015.96 1016.46 1016.83 1017.23 1017.59 1017.64 1017.68 1017.78 1018.15 1018.48 1018.66 1018.93 1019.30 1019.63 1020.01 1020.26 1020.51 1020.87
1002.69 1003.41 1004.20 1004.61 1005.18 1004.61 1004.39 1004.57 1003.90 1003.66 1003.26 1003.20 1003.23 1003.68 1004.20 1004.98 1005.52 1006.13 1006.75 1007.79 1007.88 1008.17 1009.35 1010.23 1011.12 1011.84 1012.63 1013.31 1013.96 1014.48 1015.11 1015.80 1016.47 1016.86 1017.24 1017.54 1017.57 1017.66 1017.61 1017.85 1018.22 1018.45 1018.75 1019.23 1019.48 1019.76 1020.13 1020.23 1020.45
1002.63 1003.49 1004.93 1005.52 1005.20 1003.64 1003.22 1003.62 1002.47 1001.53 1001.26 1001.23 1001.03 1001.59 1002.38 1003.44 1004.14 1004.84 1005.65 1006.17 1006.77 1007.37 1008.30 1009.36 1010.28 1011.15 1011.96 1012.74 1013.43 1013.98 1014.44 1015.07 1015.67 1016.31 1016.72 1017.23 1017.53 1017.58 1017.54 1017.67 1018.11 1018.49 1018.47 1018.79 1019.19 1019.65 1019.92 1020.17 1020.37
1001.78 1002.71 1003.74 1004.23 1004.19 1003.56 1002.76 1001.37 1000.12 999.74 999.59 999.34 999.35 1000.08 1002.26 1003.38 1003.33 1003.57 1003.97 1004.60 1005.43 1006.39 1007.18 1008.35 1009.35 1010.21 1011.23 1011.91 1012.64 1013.32 1013.95 1014.55 1014.97 1015.49 1016.10 1016.55 1016.82 1016.97 1016.81 1017.13 1017.51 1017.82 1018.09 1018.51 1018.95 1019.35 1019.70 1019.93 1020.11
1000.77 1001.13 1002.42 1003.33 1004.10 1003.51 1001.73 1000.76 999.47 998.72 998.56 998.66 998.88 1000.10 1000.64 1001.40 1001.95 1002.63 1003.23 1003.57 1004.31 1005.27 1006.05 1007.24 1008.33 1009.17 1010.22 1010.96 1011.84 1012.64 1013.31 1013.88 1014.32 1014.82 1015.45 1015.90 1016.13 1016.34 1016.50 1016.65 1017.20 1017.36 1017.69 1018.05 1018.54 1019.05 1019.33 1019.62 1019.79
999.80 1000.82 1002.09 1002.35 1003.10 1002.73 1001.23 1000.11 998.88 998.38 997.99 997.95 998.08 998.67 999.27 999.84 1000.52 1001.51 1002.20 1002.59 1003.17 1003.98 1005.05 1006.17 1007.36 1008.04 1009.06 1009.97 1010.93 1011.75 1012.42 1013.06 1013.66 1014.26 1014.78 1015.20 1015.52 1015.86 1016.13 1016.48 1016.84 1017.06 1017.15 1017.49 1018.15 1018.67 1018.91 1019.29 1019.47
1000.12 1000.04 1000.37 1001.28 1001.87 1001.58 1000.84 998.84 997.42 997.15 997.00 997.08 996.95 997.16 997.54 998.42 998.93 999.73 1000.47 1001.21 1002.01 1003.18 1004.37 1005.41 1006.53 1007.44 1008.42 1009.16 1010.05 1010.99 1011.69 1012.31 1013.02 1013.59 1014.09 1014.53 1014.93 1015.30 1015.77 1016.05 1016.39 1016.61 1016.89 1017.19 1017.69 1017.98 1018.41 1018.92 1019.11
1002.17 1000.43 1000.44 1000.31 1000.97 1000.88 1000.07 997.67 996.46 996.13 996.00 995.93 995.99 995.97 996.22 996.77 997.27 998.28 999.08 1000.03 1001.09 1002.11 1003.45 1004.49 1005.53 1006.65 1007.36 1008.09 1009.16 1009.97 1010.76 1011.54 1012.23 1012.80 1013.29 1013.79 1014.11 1014.74 1015.18 1015.58 1015.93 1016.09 1016.31 1016.71 1017.09 1017.50 1017.82 1018.25 1018.61
Wind_Speed
10 7 3 2 3 2 3 3 2 3 4 5 14 5 6 5 2 3 4 6 12 8 8 12 16 17 17 16 16 15 15 14 13 13 13 13 13 12 12 11 12 11 11 11 10 11 11 12 12
6 8 3 2 1 2 3 1 3 5 6 14 8 10 4 4 4 8 7 9 12 10 8 11 16 16 17 15 15 14 14 14 13 12 12 12 12 12 12 10 11 11 10 9 9 10 10 11 10
9 9 2 2 2 1 3 4 5 3 17 9 6 8 4 4 9 13 9 14 12 10 8 12 17 15 16 15 14 14 14 13 13 12 11 12 12 12 12 11 10 10 8 8 9 9 9 9 9
6 2 2 1 1 2 2 6 4 13 6 8 12 8 5 1 14 7 14 14 13 10 9 16 18 16 16 15 14 14 13 12 11 10 13 12 10 11 11 12 10 9 7 7 8 8 8 8 8
2 1 0 2 2 3 2 3 2 9 5 5 2 5 6 7 11 16 15 13 13 9 9 13 16 15 15 14 14 12 13 13 10 8 10 12 11 10 10 11 10 9 8 6 6 6 7 7 7
1 2 1 1 3 3 3 3 9 1 4 7 8 10 5 11 17 12 13 12 10 10 10 10 16 15 15 14 13 14 12 10 11 10 8 10 10 9 9 10 10 9 8 7 6 5 6 8 7
3 3 2 3 3 4 3 3 4 4 7 6 16 6 5 13 13 10 13 11 9 9 9 7 7 12 15 14 13 12 12 10 9 8 7 6 8 8 8 9 9 9 8 7 6 6 8 7 8
3 3 3 4 1 1 4 2 4 6 3 15 11 7 14 14 13 15 13 10 7 6 7 6 5 5 6 6 13 12 12 10 9 8 7 6 7 7 7 3 6 8 7 6 6 5 9 8 8
2 1 3 3 4 3 5 3 8 6 13 5 7 7 21 18 17 15 14 10 10 6 5 5 5 5 5 4 7 10 11 9 8 7 6 3 1 1 3 3 3 6 5 4 4 4 5 7 8
3 3 8 4 4 2 4 3 9 6 8 5 12 22 21 17 18 18 16 17 16 13 7 5 6 6 5 5 4 4 4 3 3 3 3 2 1 2 3 4 4 4 3 2 2 3 4 6 3
6 7 5 3 5 9 2 3 5 12 3 8 26 30 24 18 17 17 16 17 13 13 9 7 6 5 6 4 3 2 2 2 2 4 3 2 2 1 1 0 0 1 0 1 3 2 2 1 3
4 10 13 2 1 6 7 6 6 11 6 13 25 30 27 22 19 17 17 16 14 13 11 8 7 6 6 3 3 3 3 3 3 3 3 3 2 1 2 0 1 0 0 1 1 1 1 0 1
13 12 9 8 5 5 8 6 5 14 11 20 23 23 22 19 18 15 14 14 14 14 12 11 9 8 6 5 3 3 4 3 3 3 4 3 3 3 2 1 1 2 2 0 2 1 2 1 2
6 14 17 9 10 6 10 3 7 6 18 20 25 24 19 19 20 16 15 16 15 14 13 13 11 10 6 5 5 4 4 4 3 3 4 4 4 3 2 2 1 1 2 1 3 1 3 2 2
8 11 8 7 7 8 8 4 4 16 20 23 24 23 20 18 18 18 17 17 17 14 14 13 12 9 8 7 5 4 4 5 4 5 6 6 4 4 5 3 1 3 2 2 3 1 3 3 2
4 5 3 3 7 5 12 7 12 18 21 22 22 21 21 22 20 19 17 16 16 14 14 13 11 11 9 7 5 4 4 4 5 5 5 6 6 6 4 2 2 2 0 0 2 2 1 3 1
3 4 7 7 10 3 7 3 14 16 17 19 20 20 19 18 19 17 19 19 17 15 15 13 11 10 9 8 5 5 6 5 5 4 5 7 6 5 4 3 3 3 1 2 1 0 1 2 2
6 5 4 6 5 7 7 6 16 20 20 20 20 20 20 19 20 18 17 18 17 15 14 14 11 9 9 6 4 2 3 2 3 4 4 6 5 6 4 3 3 3 2 3 1 0 2 2 3
4 4 6 4 8 7 15 7 18 20 16 20 19 19 21 22 19 17 16 17 16 16 14 15 14 12 9 4 5 3 4 2 1 3 6 6 5 6 5 3 2 2 2 3 3 1 2 3 2
7 5 6 5 6 9 11 14 16 19 22 22 20 19 22 21 21 20 18 18 17 17 19 15 16 15 11 9 8 4 4 3 3 3 4 6 6 6 5 5 4 4 3 3 3 3 1 1 2
14 16 10 8 3 10 8 6 8 13 11 13 18 19 18 22 23 23 21 22 18 16 18 18 18 17 14 14 4 2 3 2 3 2 2 4 6 6 6 6 5 4 3 3 3 3 3 2 1
14 16 13 14 5 5 8 6 9 13 18 17 20 21 20 22 20 19 21 22 22 18 17 18 17 16 15 13 11 11 8 8 5 4 3 4 6 6 6 6 6 5 4 4 4 3 2 3 2
14 8 10 10 3 5 7 5 8 17 19 22 22 22 22 23 22 24 25 24 24 20 17 17 18 17 17 13 14 10 6 4 2 3 5 4 5 6 7 6 6 6 4 4 5 4 3 2 3
5 5 4 1 4 10 13 10 6 13 26 25 23 23 21 21 23 24 23 20 20 21 18 18 18 18 17 15 15 14 13 7 5 4 4 4 4 5 6 6 6 6 5 5 5 5 5 5 3
12 9 3 4 7 12 7 11 14 18 25 29 31 29 26 24 22 21 24 24 21 23 20 19 19 19 18 17 16 14 13 11 10 7 7 6 4 3 7 6 6 4 6 5 5 5 5 5 4
12 12 8 10 5 6 7 8 8 16 24 28 28 26 16 17 18 19 23 24 23 23 22 22 21 21 19 18 18 15 13 9 9 10 5 5 6 7 7 9 7 7 7 6 6 4 4 5 5
11 19 11 5 3 2 6 5 6 7 14 14 21 15 21 22 21 21 19 20 23 23 24 23 22 22 21 20 17 16 13 13 11 10 10 7 6 6 7 8 9 8 7 7 7 5 6 5 5
20 10 8 5 9 8 5 6 8 11 15 13 16 20 20 22 20 19 19 21 20 20 22 23 22 24 22 20 17 15 16 14 11 9 10 9 8 8 7 7 8 8 9 8 9 6 5 6 5
12 11 5 6 5 11 1 8 8 12 16 14 16 20 23 23 23 21 20 22 19 19 20 22 21 21 19 18 17 16 14 13 12 10 10 10 8 9 8 7 8 8 9 9 8 8 8 9 7
12 11 8 12 12 3 4 15 5 10 13 14 16 17 20 24 24 21 22 23 22 20 20 21 21 20 20 19 17 17 14 13 13 12 11 10 12 7 8 7 8 10 10 9 11 11 9 10 9
Wind_Direction
174 165 161 205 228 232 251 151 325 120 113 127 142 151 151 35 142 185 142 151 127 134 149 143 134 130 127 124 122 119 121 117 117 122 120 121 123 128 123 122 124 116 114 107 97 89 87 96 103
162 168 218 260 262 313 330 334 309 160 136 132 93 111 78 83 83 117 113 153 135 136 147 142 136 134 129 129 124 121 122 116 119 112 118 117 116 117 123 121 116 114 112 106 99 95 94 90 97
170 207 257 236 74 74 309 347 298 106 135 139 105 42 75 92 116 144 145 135 132 130 137 148 140 137 134 130 128 119 117 119 121 126 122 121 126 119 121 121 116 112 114 115 106 101 97 97 102
181 205 266 250 265 177 223 303 161 132 98 75 116 77 89 232 139 147 137 134 131 133 148 147 146 141 139 134 127 125 123 124 125 134 122 117 118 119 127 125 123 122 114 99 96 97 97 100 104
280 209 310 254 234 212 113 313 179 152 70 86 81 100 79 139 116 127 133 133 138 142 142 148 149 146 140 140 134 136 131 132 135 121 122 127 126 128 130 126 126 129 121 108 92 92 95 107 114
116 90 73 211 257 284 308 347 165 138 102 123 96 100 106 124 131 136 133 137 139 134 139 152 150 148 145 143 140 141 139 135 135 126 119 127 130 133 131 131 132 128 120 116 107 93 94 106 120
147 102 217 254 260 15 291 7 145 141 149 118 148 96 106 140 142 133 131 133 133 133 136 142 148 152 153 150 144 146 147 142 140 132 124 122 123 134 137 138 136 127 122 122 110 92 91 103 105
153 131 256 228 67 50 256 156 88 141 74 130 148 157 160 158 146 131 130 132 128 130 135 136 142 136 146 160 153 159 153 151 150 146 147 150 148 145 141 134 139 128 127 126 109 94 101 102 112
175 31 254 233 171 149 287 181 150 93 141 174 173 132 143 145 134 134 136 138 144 139 137 130 136 144 158 157 167 166 155 158 159 154 146 120 121 79 113 180 177 136 130 126 116 114 103 119 117
183 194 217 234 104 187 147 151 126 136 150 64 97 124 144 148 146 150 151 158 164 163 160 147 154 162 164 169 167 154 159 138 129 122 141 161 166 213 189 209 216 169 145 133 104 87 100 97 95
191 227 190 262 125 156 195 197 129 148 170 185 149 150 154 154 157 154 155 163 167 166 168 165 170 172 181 176 158 167 137 149 157 185 190 183 126 13 48 301 46 49 59 60 56 53 35 70 113
255 239 252 215 187 181 164 144 150 174 205 153 162 158 157 163 165 161 159 164 162 168 174 175 178 178 203 164 179 174 155 177 206 196 206 185 182 153 84 320 259 125 85 161 116 83 156 315 249
233 256 264 266 242 149 169 155 189 195 126 139 152 158 165 163 162 163 159 164 166 171 176 182 182 185 199 185 193 182 180 185 190 195 206 188 193 181 129 259 305 305 299 201 83 327 47 254 199
200 237 263 273 281 164 153 139 129 133 135 146 159 164 171 169 167 161 166 172 174 176 181 181 190 192 178 187 197 200 178 187 184 198 213 221 215 181 178 199 174 278 276 352 84 346 112 13 67
251 288 299 250 253 176 142 183 170 145 149 155 164 169 174 177 174 176 174 176 176 181 180 185 188 188 185 190 197 197 203 188 188 195 195 214 220 200 177 188 165 235 267 13 116 40 89 78 358
158 190 269 257 204 235 140 235 164 159 154 159 167 174 180 184 185 179 174 180 178 181 182 184 192 186 194 192 190 198 205 211 193 195 184 204 216 210 191 165 186 219 290 31 106 113 36 107 162
309 190 188 276 200 168 173 199 182 167 162 168 175 183 188 188 190 188 178 180 181 180 181 185 191 186 192 201 192 200 203 206 198 181 187 194 199 201 187 177 175 147 32 79 140 327 115 121 100
202 189 196 190 216 168 171 253 173 180 171 178 181 189 190 194 197 192 187 181 180 183 182 186 187 186 185 191 183 179 173 191 175 192 180 177 186 184 177 196 176 125 86 105 38 354 20 104 135
182 212 196 213 191 143 197 198 189 181 188 178 191 192 199 201 194 192 190 185 185 186 183 190 189 190 176 172 182 180 184 177 200 201 167 182 185 177 181 186 161 140 120 157 159 124 63 37 74
231 250 258 293 182 186 195 213 195 188 200 186 191 197 202 202 198 197 193 188 183 184 193 190 194 191 188 192 200 175 166 170 161 188 186 189 185 181 183 170 198 174 133 139 167 124 100 59 105
211 222 235 231 109 203 172 236 173 197 207 199 207 207 206 205 203 198 196 195 190 184 189 194 194 193 194 196 148 90 85 48 137 147 206 201 186 179 190 181 189 196 169 189 182 153 148 145 352
215 209 221 245 144 199 165 228 210 204 214 211 209 208 203 207 211 207 206 199 193 190 188 190 191 192 193 187 194 197 202 201 199 163 171 198 185 187 194 188 195 200 188 195 172 170 160 124 157
228 163 200 234 194 150 234 121 253 197 221 222 218 210 204 208 207 207 205 205 199 186 188 189 189 193 193 190 197 195 199 203 152 144 162 194 199 196 199 192 196 205 191 192 184 160 170 162 155
169 186 192 258 139 245 212 207 256 191 220 225 226 220 207 204 207 214 208 207 201 191 185 186 187 194 194 191 196 195 193 167 157 183 179 192 205 204 208 195 196 203 190 187 197 181 178 198 192
197 138 230 251 206 235 209 196 218 210 214 217 218 213 211 205 205 202 202 201 198 195 185 186 186 193 193 193 196 197 195 178 182 186 200 179 186 205 215 194 198 198 199 201 177 189 181 195 188
207 182 166 194 188 216 201 214 235 204 218 220 226 212 201 220 210 205 202 196 196 195 188 187 187 192 192 190 198 198 195 189 191 192 184 199 195 204 200 203 201 202 190 189 180 190 195 192 203
197 207 192 102 349 170 221 250 298 204 238 222 228 193 199 209 208 207 206 197 195 192 191 189 189 191 191 193 196 198 195 196 196 188 198 202 197 206 200 194 202 198 193 187 181 199 205 187 196
208 158 186 219 189 226 270 214 206 190 229 212 219 207 201 202 206 205 203 204 195 192 191 188 192 189 191 192 194 196 197 199 196 181 189 193 202 207 200 190 197 199 199 193 186 192 201 194 207
210 202 198 154 190 223 234 250 204 195 206 199 219 209 206 200 202 197 198 202 192 189 187 191 192 194 192 190 193 197 198 196 194 188 197 201 194 201 205 192 192 199 201 195 193 200 195 200 213
297 215 169 200 215 247 194 242 250 212 197 194 213 213 208 204 203 199 197 196 193 184 186 191 193 193 194 191 191 196 194 193 197 202 197 192 206 189 196 187 195 206 206 196 200 208 204 198 207